Regional Weather Roundup
Issued by NWS

Home | Current Version | Previous Version | Graphics & Text | Print | Product List | Glossary On
Versions: 1 2 3 4 5 6 7 8 9 10 11 12 13 14 15 16 17 18 19 20 21 22 23 24 25 26 27 28 29 30 31 32 33 34 35 36 37 38 39 40 41 42 43 44 45 46 47 48 49 50
000
ASUS43 KLOT 111503
RWRIL

ILLINOIS REGIONAL WEATHER ROUNDUP
NATIONAL WEATHER SERVICE CHICAGO/ROMEOVILLE IL
900 AM CST THU FEB 11 2016

NOTE: "FAIR" INDICATES FEW OR NO CLOUDS BELOW 12,000 FEET WITH NO
SIGNIFICANT WEATHER AND/OR OBSTRUCTIONS TO VISIBILITY.

* THESE STATIONS ARE NOT UNDER NWS QUALITY CONTROL. THEY ALSO MAY NOT
  REPORT WEATHER SUCH AS PRECIPITATION OR FOG.

ILZ001-002-007-009-015-016-024-111600-
NORTHWEST ILLINOIS

CITY           SKY/WX    TMP DP  RH WIND       PRES   REMARKS
MOLINE         SUNNY     14   1  56 NE5       30.36R WCI   6
STERLING*      SUNNY     14   1  57 N7        30.32R WCI   4
$$

ILZ003-004-008-010-011-017-018-111600-
NORTH CENTRAL ILLINOIS

CITY           SKY/WX    TMP DP  RH WIND       PRES   REMARKS
ROCKFORD       SUNNY     11   0  61 NW7       30.34R WCI   0
FREEPORT*      SUNNY      8   0  68 NW6       30.34R WCI  -2
DE KALB*       SUNNY     11   1  66 NW10      30.31R WCI  -3
$$

ILZ005-006-012>014-019>023-111600-
NORTHEAST ILLINOIS

CITY           SKY/WX    TMP DP  RH WIND       PRES   REMARKS
CHICAGO-OHARE  MOSUNNY   11  -1  58 N9        30.30R WCI  -2
CHICAGO-MIDWAY MOSUNNY   13  -2  51 N9        30.31R WCI   1
AURORA         SUNNY     12   2  64 N10       30.32R WCI  -1
LANSING*       SUNNY     13   0  54 NW7       30.31R WCI   3
WAUKEGAN       SUNNY     10  -1  61 NW9       30.29R WCI  -3
DUPAGE AIRPORT SUNNY     11  -1  58 N8        30.30R WCI  -1
WHEELING       SUNNY     10  -1  61 NW12      30.31S WCI  -5
NORTHERLY ISL    N/A     14   2  58 NW6         N/A  WCI   5
$$

LMZ740>746-111600-
SOUTHERN LAKE MICHIGAN

STATION/POSITION SKY/WX   TEMP    WIND        PRES    VSBY  WAVE
                          AIR SEA DIR/SP/G                  HT/PER
                          (F)     (DEG/KT/KT) (MB)    (MI)  (FT/S)
HARRISON CRIB              11     310/ 15/ 18   N/A
BURNHAM HARBOR             14     270/  5/ 11   N/A
CALUMET HARBOR             11     300/  7/ 10 1024.9R
MICHIGAN CITY              17     310/ 12/ 14   N/A
$$

ILZ025>027-034>036-040-047-049-050-058-095>099-111600-
WEST-CENTRAL ILLINOIS

CITY           SKY/WX    TMP DP  RH WIND       PRES   REMARKS
QUINCY         CLOUDY    13   4  67 NE5       30.34R WCI   5
MACOMB*        SUNNY     15   6  69 NE8       30.37R WCI   3
$$

ILZ028>032-037-038-041>044-048-051>054-059>061-111600-
CENTRAL ILLINOIS

CITY           SKY/WX    TMP DP  RH WIND       PRES   REMARKS
BLOOMINGTON    SUNNY     14   5  67 N7        30.33R WCI   4
DECATUR        SUNNY     17   5  59 NE8       30.33R WCI   7
PEORIA         SUNNY     15   4  61 NE7       30.35R WCI   5
LINCOLN*       SUNNY     17   7  66 N3        30.35R
SPRINGFIELD    SUNNY     18   5  57 NE7       30.35R WCI   9
TAYLORVILLE    NOT AVBL
$$

ILZ033-039-045-046-055>057-062-063-111600-
EAST-CENTRAL ILLINOIS

CITY           SKY/WX    TMP DP  RH WIND       PRES   REMARKS
CHAMPAIGN      SUNNY     16   4  59 N9        30.31R WCI   4
MATTOON        SUNNY     15   5  64 NE10      30.31R WCI   2
$$

ILZ079-100>102-111600-
SOUTHWEST ILLINOIS

CITY           SKY/WX    TMP DP  RH WIND       PRES   REMARKS
ALTON          CLOUDY    19  10  68 NE8       30.34  WCI   9
BELLEVILLE     CLOUDY    22  15  74 NE8       30.33R WCI  13
CAHOKIA*       CLOUDY    24  16  71 NE9       30.35R WCI  14
SPARTA*        CLOUDY    21  17  83 N5        30.32R WCI  15
$$

ILZ064>066-069>071-074>076-080>082-084>086-088>090-092>094-111600-
SOUTH-CENTRAL ILLINOIS

CITY           SKY/WX    TMP DP  RH WIND       PRES   REMARKS
CARBONDALE     CLOUDY    24  17  74 NE7       30.31R WCI  16
MARION         CLOUDY    25  19  80 NE8       30.31R WCI  16
MT. VERNON     CLOUDY    23  16  74 N8        30.32R WCI  14
CENTRALIA*     CLOUDY    23  17  80 NE7       30.32R WCI  14
SALEM*         CLOUDY    23  11  62 NE7       30.32R WCI  14
$$

ILZ067-068-072-073-078-083-087-091-111600-
SOUTHEAST ILLINOIS

CITY           SKY/WX    TMP DP  RH WIND       PRES   REMARKS
LAWRENCEVILLE  MOSUNNY   21   7  54 CALM      30.33R
HARRISBURG*    CLOUDY    24  20  84 NE6       30.31R WCI  17
$$

ABBREVIATIONS USED IN REMARKS
   TC - TEMPERATURE IN CELSIUS
  WCI - WIND CHILL INDEX
   HX - HEAT INDEX
  VSB - VISIBILITY
$$




USA.gov is the U.S. government's official web portal to all federal, state and local government web resources and services.